sat.trackr.live / text

‹ back to catalog

STARLINK-32299

NORAD 61702 · 2024-195R

PAYLOAD ACTIVE UNKNOWN

§ Identity

Operator
Country
US
Launch date
2024-10-30
Launch site
AFWTR
Launch vehicle
Mass (kg)
RCS (m²)

Purposes: comms

External: N2YO · Heavens-Above · Gunter

§ Orbital elements

Epoch: 2026-09-20T21:39:38.654208Z

Period
93.85 min
Inclination
53.1598°
Eccentricity
0.0001557
Mean motion
15.34399340 rev/d
Perigee alt
461.6 km
Apogee alt
463.8 km
Semi-major
6,840.8 km
B*
1.4333e-4
RAAN
324.0632°
Arg perigee
70.6787°
Mean anomaly
289.4384°
Rev number
10,720

§ Raw data

STARLINK-322991 61702U 24195R   26263.90253072  .00004469  00000+0  14333-3 0  99932 61702  53.1598 324.0632 0001557  70.6787 289.4384 15.34399340107201

JSON: /api/v1/satellites/61702 · /tle

For live sub-satellite position, see the globe view (requires WebGL).

§ Visibility from observer

Set your observer location to see the next 7 days of passes ≥ 10°. The values pass through the URL so the page stays shareable.

No JS? Fill the form by hand. The geolocation button needs JavaScript.